Weather History for PAGA - March, 2013

Change the Weather History Date:

Tuesday, March 26, 2013

  Actual Average Record
Temperature  
Mean Temperature -5 °F -  
Max Temperature 3 °F 19 °F 75 °F (2008)
Min Temperature -13 °F 0 °F -25 °F (1952)
Degree Days  
Heating Degree Days 70    
Moisture  
Dew Point -15 °F    
Average Humidity 63    
Maximum Humidity 75    
Minimum Humidity 47    
Precipitation  
Precipitation 0.00 in - - ()
Sea Level Pressure  
Sea Level Pressure 30.12 in    
Wind  
Wind Speed 4 mph (WSW)    
Max Wind Speed 12 mph    
Max Gust Speed -    
Visibility 8 miles    
Events Snow    
Averages and records for this station are not official NWS values.
T = Trace of Precipitation, MM = Missing Value Source: NWS Daily Summary

Daily Weather History Graph

Daily Weather History Graph

Search for Another Location

Airport or City:

Trip Planner

Search our weather history database for the weather conditions in past years. The results will help you decide how hot, cold, wet, or windy it might be!

Date:

Astronomy

Mar. 26, 2013 Rise Set
Actual Time 8:04 AM AKDT 9:03 PM AKDT
Civil Twilight 7:14 AM AKDT 9:53 PM AKDT
Nautical Twilight 6:12 AM AKDT 10:56 PM AKDT
Astronomical Twilight 4:55 AM AKDT 12:15 AM AKDT
Moon 9:03 PM AKDT (3/26) 7:30 AM AKDT (3/26)
Length of Visible Light 14h 38m
Length of Day
12h 58m
Full, 100% of the Moon is Illuminated
Mar 26
Full
Mar 27
Full
Apr 2
Last Quarter
Apr 10
New
Apr 18
First Quarter

Hourly Weather History & Observations

Time (AKDT) Temp. Windchill Dew Point Humidity Pressure Visibility Wind Dir Wind Speed Gust Speed Precip Events Conditions
12:58 AM -13.0 °F - -18.9 °F 75% 29.99 in 10.0 mi Calm Calm - N/A   Clear
1:58 AM -11.9 °F - -18.9 °F 71% 30.00 in 10.0 mi Calm Calm - N/A   Clear
2:58 AM -11.0 °F - -18.9 °F 68% 30.02 in 10.0 mi Calm Calm - N/A   Partly Cloudy
3:58 AM -9.9 °F -19.2 °F -18.9 °F 65% 30.02 in 10.0 mi West 3.5 mph - N/A   Overcast
4:58 AM -9.9 °F -21.5 °F -18.0 °F 68% 30.04 in 9.0 mi SW 4.6 mph - 0.00 in Snow Light Snow
5:58 AM -9.0 °F -18.2 °F -17.0 °F 68% 30.05 in 10.0 mi West 3.5 mph - 0.00 in Snow Light Snow
6:58 AM -9.0 °F -18.2 °F -16.1 °F 71% 30.06 in 6.0 mi SW 3.5 mph - 0.00 in Snow Light Snow
7:58 AM -9.9 °F -21.5 °F -17.0 °F 71% 30.07 in 6.0 mi SW 4.6 mph - 0.00 in   Haze
8:58 AM -11.0 °F -24.6 °F -17.0 °F 75% 30.09 in 9.0 mi WSW 5.8 mph - 0.00 in   Overcast
9:47 AM -9.4 °F -22.7 °F -16.6 °F 71% 30.07 in 3.0 mi WSW 5.8 mph - 0.00 in Snow Light Snow
9:52 AM -9.4 °F -22.7 °F -16.6 °F 71% 30.07 in 2.5 mi WSW 5.8 mph - 0.00 in Snow Light Snow
9:58 AM -9.0 °F -22.3 °F -16.1 °F 71% 30.10 in 2.5 mi WSW 5.8 mph - 0.00 in Snow Light Snow
10:09 AM -9.4 °F -18.6 °F -16.6 °F 71% 30.08 in 1.8 mi WSW 3.5 mph - 0.00 in Snow Light Snow
10:20 AM -7.6 °F -18.8 °F -14.8 °F 71% 30.08 in 2.0 mi SW 4.6 mph - 0.00 in   Haze
10:29 AM -7.6 °F -18.8 °F -14.8 °F 71% 30.09 in 4.0 mi SSW 4.6 mph - 0.00 in   Haze
10:44 AM -5.8 °F -16.7 °F -14.8 °F 65% 30.09 in 7.0 mi SW 4.6 mph - 0.00 in   Mostly Cloudy
10:58 AM -6.0 °F -18.6 °F -15.0 °F 65% 30.12 in 10.0 mi WSW 5.8 mph - 0.00 in   Mostly Cloudy
11:58 AM -5.1 °F -19.1 °F -15.0 °F 62% 30.13 in 10.0 mi WSW 6.9 mph - N/A   Partly Cloudy
12:58 PM 1.9 °F -9.2 °F -13.0 °F 50% 30.14 in 10.0 mi WSW 5.8 mph - N/A   Clear
1:46 PM -0.4 °F -13.4 °F -14.8 °F 51% 30.12 in 10.0 mi SW 6.9 mph - N/A   Mostly Cloudy
1:58 PM -0.0 °F -13.0 °F -14.1 °F 52% 30.15 in 10.0 mi WSW 6.9 mph - N/A   Overcast
2:11 PM -0.4 °F -12.0 °F -14.8 °F 51% 30.13 in 10.0 mi SW 5.8 mph - N/A   Scattered Clouds
2:58 PM 1.9 °F -11.8 °F -14.1 °F 47% 30.16 in 10.0 mi SW 8.1 mph - N/A   Clear
3:58 PM 3.0 °F -13.3 °F -13.0 °F 47% 30.17 in 10.0 mi SW 11.5 mph - N/A   Clear
4:58 PM 1.9 °F -13.8 °F -11.9 °F 52% 30.19 in 10.0 mi WSW 10.4 mph - N/A   Clear
5:58 PM 1.9 °F -14.7 °F -11.9 °F 52% 30.20 in 10.0 mi WSW 11.5 mph - N/A   Clear
6:58 PM 1.9 °F -13.8 °F -11.9 °F 52% 30.21 in 10.0 mi WSW 10.4 mph - N/A   Clear
7:58 PM 1.9 °F -10.6 °F -11.9 °F 52% 30.21 in 10.0 mi WSW 6.9 mph - N/A   Clear
8:58 PM -2.0 °F -15.4 °F -14.1 °F 57% 30.22 in 10.0 mi West 6.9 mph - N/A   Clear
9:58 PM -5.1 °F -15.8 °F -15.0 °F 62% 30.23 in 10.0 mi West 4.6 mph - N/A   Clear
10:58 PM -7.1 °F - -16.1 °F 65% 30.25 in 10.0 mi Calm Calm - N/A   Scattered Clouds
11:58 PM -9.0 °F - -17.0 °F 68% 30.25 in 10.0 mi Calm Calm - N/A   Clear